Regional Weather Roundup
Issued by NWS Raleigh/Durham, NC

Home | Current Version | Previous Version | Text Only | Print | Product List | Glossary On
Versions: 1 2 3 4 5 6 7 8 9 10 11 12 13 14 15 16 17 18 19 20 21 22 23 24 25 26 27 28 29 30 31 32 33 34 35 36 37 38 39 40 41 42 43 44 45 46 47 48 49 50
000
ASUS42 KRAH 020310
RWRRAH
NORTH CAROLINA WEATHER ROUNDUP
NATIONAL WEATHER SERVICE RALEIGH NC
1100 PM EDT MON JUN 01 2015

NOTE: "FAIR" INDICATES FEW OR NO CLOUDS BELOW 12,000 FEET WITH NO
SIGNIFICANT WEATHER AND/OR OBSTRUCTIONS TO VISIBILITY.

NCZ001-053-055-056-065-067-020400-
WESTERN NORTH CAROLINA

CITY           SKY/WX    TMP DP  RH WIND       PRES   REMARKS
ASHEVILLE      LGT RAIN  63  59  87 NE5       30.11F
JEFFERSON      CLOUDY    60  60 100 CALM      30.13S
MORGANTON      CLOUDY    65  65 100 CALM      30.12S
HICKORY        RAIN      65  63  93 CALM      30.08R FOG
RUTHERFORDTON  CLOUDY    70  63  78 NW7       30.09R
MOUNT AIRY       N/A     67  64  92 CALM      30.08F
BOONE          LGT RAIN  61  61 100 SW5       30.15R
$$

NCZ021-022-025-041-071-084-088-020400-
CENTRAL NORTH CAROLINA

CITY           SKY/WX    TMP DP  RH WIND       PRES   REMARKS
CHARLOTTE      CLOUDY    74  62  66 W7        30.06R
GREENSBORO     CLOUDY    69  66  90 CALM      30.04R
WINSTON-SALEM  MOCLDY    72  60  66 W5        30.06S
RALEIGH-DURHAM MOCLDY    70  67  90 S7        30.04R
FORT BRAGG     MOCLDY    76  65  69 S5        30.04S
FAYETTEVILLE   MOCLDY    72  69  90 S5        30.05R
BURLINGTON     HVY RAIN  70  68  93 CALM      30.05R FOG
LAURINBURG     CLOUDY    75  65  70 S13       30.06R THUNDER
$$

NCZ011-015-027-028-043-044-047-080-103-020400-
NORTHEASTERN NORTH CAROLINA

CITY           SKY/WX    TMP DP  RH WIND       PRES   REMARKS
ROCKY MT-WILSO PTCLDY    71  71 100 CALM      30.04R FOG
GREENVILLE     PTCLDY    75  68  78 SW9       30.07R
WASHINGTON     CLEAR     74  67  79 S5        30.06R
ELIZABETH CITY CLEAR     75  67  76 S8        30.06R
MANTEO         PTCLDY    76  69  79 SW13      30.05S
CAPE HATTERAS  CLEAR     76  68  76 S13       30.06F
$$

NCZ078-087-090-091-093-098-101-020400-
SOUTHEASTERN NORTH CAROLINA

CITY           SKY/WX    TMP DP  RH WIND       PRES   REMARKS
LUMBERTON      CLOUDY    72  69  90 CALM      30.05R
GOLDSBORO      MOCLDY    75  68  78 S1        30.03R
KINSTON        MOCLDY    74  67  78 S6        30.06S
KENANSVILLE    CLEAR     72  66  82 CALM      30.07R
NEW BERN       CLEAR     72  67  84 S3        30.06F
CHERRY POINT   CLEAR     73  66  78 S3        30.07S
BEAUFORT       CLEAR     76  69  79 S10       30.07R
JACKSONVILLE   CLEAR     73  69  87 SW3       30.05R
WILMINGTON     PTCLDY    74  69  85 S3        30.06R
$$



USA.gov is the U.S. government's official web portal to all federal, state and local government web resources and services.